Location: Chuathbaluk
(61.5726°N, 159.2454°W)
Time: 14:33:29
(UTC+00:00)

DELFI C3 - Pass Details

Date: 19 January 2021
Orbit: 531 x 550 km, 97.4° (Epoch: 04 March)

Event Time Altitude Azimuth Distance (km) Brightness Sun altitude
Rises 17:37:15 0° 25° (NNE) 2,744 ? -12.0°
Reaches altitude 10° 17:40:35 10° 55° (NE) 1,843 ? -11.6°
Maximum altitude 17:42:20 13° 82° (E) 1,678 ? -11.4°
Drops below altitude 10° 17:44:06 10° 108° (ESE) 1,836 ? -11.2°
Sets 17:47:23 0° 138° (SE) 2,721 ? -10.9°
